Location: Paddlesworth
(51.1000°N, 1.1333°E)
Time: 14:05:08
(UTC+00:00)

Cosmos 1515 Rocket - Pass Details

Date: 11 May 2021
Orbit: 606 x 630 km, 82.5° (Epoch: 19 June)

Event Time Altitude Azimuth Distance (km) Brightness Sun altitude
Exits shadow 20:29:36 - 153° (SSE) 2,128 5.7 -7.9°
Reaches altitude 10° 20:29:59 10° 151° (SSE) 1,990 5.6 -7.9°
Maximum altitude 20:33:50 30° 90° (E) 1,112 4.5 -8.4°
Drops below altitude 10° 20:37:41 10° 29° (NNE) 1,991 6.4 -8.8°
Sets 20:40:06 0° 19° (NNE) 2,898 7.4 -9.1°
